Hourly Data Report for August 02, 2020

TORONTO CITY
ONTARIO
Current Station Operator: ECCC - MSC

43°40'00.000" N
79°24'00.000" W
112.50 m
6158355
71508
XTO

Download Data

Hourly Data (August 2020)
Hourly Data Report for August 2, 2020
TIME
LST
Temp Definition
°C
Dew Point Definition
°C
Rel Hum Definition
%
Precip. Amount Definition
mm

Wind Dir Definition
10's deg

Wind Spd Definition
km/h
Visibility Definition
km
Stn Press Definition
kPa
Hmdx Definition


Wind Chill Definition


Weather Definition


00:00 24.5 18.0 67 0.0       99.68 31   LegendNANA
01:00 20.9 18.1 85 4.1       99.62 27   LegendNANA
02:00 21.7 18.7 84 0.0       99.54 28   LegendNANA
03:00 20.8 18.5 87 1.5       99.47 27   LegendNANA
04:00 20.7 18.8 89 1.9       99.43 27   LegendNANA
05:00 20.3 18.4 89 4.4       99.36 27   LegendNANA
06:00 20.5 18.7 89 0.2       99.28 27   LegendNANA
07:00 20.7 18.8 89 1.0       99.21 27   LegendNANA
08:00 21.7 19.7 89 0.0       99.13 29   LegendNANA
09:00 21.9 20.1 89 12.0       99.11 30   LegendNANA
10:00 22.5 20.6 89 8.0       99.08 31   LegendNANA
11:00 23.2 21.1 88 5.2       99.03 32   LegendNANA
12:00 23.2 21.2 88 2.8       99.00 32   LegendNANA
13:00 24.3 20.7 81 0.6       98.97 32   LegendNANA
14:00 24.4 19.3 73 0.0       98.98 31   LegendNANA
15:00 25.9 18.8 65 0.3       98.97 33   LegendNANA
16:00 25.1 17.8 64 0.0       98.99 31   LegendNANA
17:00 24.3 18.1 68 0.2       98.99 30   LegendNANA
18:00 23.4 18.1 72 0.0       98.98 29   LegendNANA
19:00 22.8 18.5 77 0.2       98.99 29   LegendNANA
20:00 21.6 18.7 84 1.0       99.06 28   LegendNANA
21:00 21.2 18.3 84 0.4       99.27 27   LegendNANA
22:00 20.2 16.7 81 0.0       99.47 25   LegendNANA
23:00 20.1 16.3 79 0.0       99.62 25   LegendNANA

Notes on Data Quality.

Legend

  • E = Estimated
  • M = Missing
  • NA = Not Available*
  • [empty] = Indicates an unobserved value
Date modified: